Change the Weather History Date:

Saturday, October 13, 2012

  Actual Average (KOFK) Record (KOFK)
Temperature  
Mean Temperature 62 °F 52 °F  
Max Temperature 72 °F 65 °F 90 °F (1975)
Min Temperature 51 °F 40 °F 17 °F (1909)
Degree Days  
Heating Degree Days 4 13  
Month to date heating degree days 143  
Since 1 July heating degree days 285  
Cooling Degree Days 0 0  
Month to date cooling degree days 8  
Year to date cooling degree days 914  
Growing Degree Days 12 (Base 50)    
Moisture  
Dew Point 55 °F    
Average Humidity 84    
Maximum Humidity 100    
Minimum Humidity 64    
Precipitation  
Precipitation 0.11 in 0.07 in 0.70 in (1943)
Month to date precipitation 1.01  
Year to date precipitation 24.23  
Snow  
Snow 0.00 in 0.00 in - ()
Month to date snowfall 0.1  
Since 1 July snowfall 0.1  
Snow Depth -    
Sea Level Pressure  
Sea Level Pressure 29.72 in    
Wind  
Wind Speed 12 mph (SW)    
Max Wind Speed 23 mph    
Max Gust Speed 26 mph    
Visibility 10 miles    
Events Rain , Thunderstorm    
T = Trace of Precipitation, MM = Missing Value Source: NWS Daily Summary

Daily Weather History Graph

Daily Weather History Graph

Search for Another Location

Airport or City:

Trip Planner

Search our weather history database for the weather conditions in past years. The results will help you decide how hot, cold, wet, or windy it might be!

Date:

Astronomy

Oct. 13, 2012 Rise Set
Actual Time 7:38 AM CDT 6:48 PM CDT
Civil Twilight 7:10 AM CDT 7:16 PM CDT
Nautical Twilight 6:38 AM CDT 7:49 PM CDT
Astronomical Twilight 6:05 AM CDT 8:21 PM CDT
Moon 5:28 AM CDT (10/13) 5:33 PM CDT (10/13)
Length of Visible Light 12h 05m
Length of Day
11h 09m
Waning Crescent, 5% of the Moon is Illuminated
Oct 13
Waning Crescent
Oct 15
New
Oct 21
First Quarter
Oct 29
Full
Nov 6
Last Quarter

Hourly Weather History & Observations

Time (CDT) Temp. Dew Point Humidity Pressure Visibility Wind Dir Wind Speed Gust Speed Precip Events Conditions
12:55 AM 51.8 °F 44.6 °F 76% 29.93 in 10.0 mi South 19.6 mph - N/A   Overcast
1:35 AM 51.8 °F 44.8 °F 77% 29.90 in 10.0 mi South 12.7 mph - N/A   Overcast
1:55 AM 51.8 °F 44.8 °F 77% 29.88 in 10.0 mi South 12.7 mph - N/A Thunderstorm Overcast
2:15 AM 51.8 °F 45.0 °F 77% 29.86 in 10.0 mi South 12.7 mph - N/A   Overcast
2:35 AM 51.8 °F 44.8 °F 77% 29.86 in 10.0 mi South 9.2 mph - N/A   Overcast
2:55 AM 51.8 °F 46.4 °F 82% 29.85 in 10.0 mi South 10.4 mph - N/A   Overcast
3:15 AM 51.8 °F 47.1 °F 84% 29.85 in 10.0 mi South 9.2 mph - N/A   Overcast
3:35 AM 52.3 °F 48.6 °F 87% 29.84 in 10.0 mi South 9.2 mph - N/A Thunderstorm Overcast
3:55 AM 52.2 °F 49.1 °F 89% 29.84 in 7.0 mi South 6.9 mph - N/A Rain , Thunderstorm Light Thunderstorms and Rain
4:15 AM 52.3 °F 51.1 °F 95% 29.83 in 7.0 mi Calm Calm - 0.02 in Rain , Thunderstorm Light Thunderstorms and Rain
4:35 AM 52.7 °F 52.7 °F 100% 29.81 in 5.0 mi South 12.7 mph - 0.02 in Rain , Thunderstorm Rain
4:55 AM 52.5 °F 52.5 °F 100% 29.79 in 5.0 mi South 8.1 mph - 0.06 in Rain Rain
5:15 AM 54.9 °F 54.9 °F 100% 29.77 in 7.0 mi South 15.0 mph - 0.03 in Rain Rain
5:35 AM 57.4 °F 57.4 °F 100% 29.78 in 10.0 mi South 23.0 mph 26.5 mph 0.05 in Rain Light Rain
5:55 AM 57.9 °F 57.9 °F 100% 29.74 in 10.0 mi South 10.4 mph - 0.05 in   Overcast
6:15 AM 58.1 °F 58.1 °F 100% 29.73 in 10.0 mi South 17.3 mph - N/A   Overcast
6:35 AM 57.6 °F 57.4 °F 99% 29.73 in 10.0 mi South 15.0 mph 20.7 mph N/A   Mostly Cloudy
6:55 AM 56.3 °F 56.3 °F 100% 29.76 in 10.0 mi SSW 12.7 mph - N/A   Scattered Clouds
7:15 AM 56.3 °F 56.3 °F 100% 29.76 in 10.0 mi SSW 11.5 mph - N/A   Overcast
7:35 AM 55.4 °F 55.4 °F 100% 29.75 in 10.0 mi SSW 6.9 mph - N/A   Overcast
7:55 AM 55.4 °F 55.4 °F 100% 29.75 in 10.0 mi SSW 9.2 mph - N/A   Overcast
8:15 AM 55.4 °F 55.4 °F 100% 29.75 in 10.0 mi South 9.2 mph - N/A Rain Light Rain
8:55 AM 55.2 °F 55.2 °F 100% 29.74 in - South 9.2 mph - N/A   Unknown
9:35 AM 55.4 °F 55.4 °F 100% 29.73 in 7.0 mi South 10.4 mph - N/A   Overcast
9:55 AM 56.8 °F 56.8 °F 100% 29.73 in 10.0 mi SSW 16.1 mph - N/A   Overcast
10:35 AM 57.6 °F 57.6 °F 100% 29.71 in 10.0 mi SSW 11.5 mph - N/A   Overcast
10:55 AM 58.8 °F 58.3 °F 98% 29.71 in 10.0 mi SW 13.8 mph - N/A   Overcast
11:15 AM 59.4 °F 58.1 °F 96% 29.70 in 10.0 mi SSW 17.3 mph - N/A   Overcast
11:35 AM 60.1 °F 58.6 °F 95% 29.70 in 10.0 mi SW 12.7 mph - N/A   Overcast
11:55 AM 61.0 °F 58.6 °F 92% 29.70 in 10.0 mi SSW 13.8 mph - N/A   Overcast
12:15 PM 61.9 °F 58.5 °F 89% 29.70 in 10.0 mi SW 12.7 mph - N/A   Overcast
12:35 PM 62.8 °F 58.5 °F 86% 29.69 in 10.0 mi SSW 13.8 mph - N/A   Mostly Cloudy
12:55 PM 63.9 °F 58.8 °F 84% 29.69 in 10.0 mi SSW 12.7 mph - N/A   Mostly Cloudy
1:15 PM 64.8 °F 59.0 °F 82% 29.69 in 10.0 mi SSW 13.8 mph 18.4 mph N/A   Mostly Cloudy
1:35 PM 64.4 °F 58.5 °F 81% 29.67 in 10.0 mi SSW 15.0 mph - N/A   Mostly Cloudy
1:55 PM 64.8 °F 58.5 °F 80% 29.68 in 10.0 mi SW 13.8 mph 19.6 mph N/A   Mostly Cloudy
2:15 PM 66.0 °F 58.6 °F 77% 29.67 in 10.0 mi WSW 12.7 mph - N/A   Mostly Cloudy
2:35 PM 67.1 °F 59.0 °F 75% 29.67 in 10.0 mi SW 13.8 mph - N/A   Scattered Clouds
2:55 PM 69.3 °F 59.9 °F 72% 29.65 in 10.0 mi SW 13.8 mph - N/A   Clear
3:15 PM 70.3 °F 60.1 °F 70% 29.65 in 10.0 mi SSW 12.7 mph - N/A   Clear
3:35 PM 71.1 °F 60.1 °F 68% 29.66 in 10.0 mi SW 12.7 mph 16.1 mph N/A   Clear
3:55 PM 71.2 °F 59.9 °F 67% 29.65 in 10.0 mi WSW 8.1 mph - N/A   Clear
4:15 PM 71.8 °F 60.1 °F 67% 29.65 in 10.0 mi SW 11.5 mph - N/A   Clear
4:35 PM 72.3 °F 59.9 °F 65% 29.65 in 10.0 mi SW 9.2 mph - N/A   Clear
4:55 PM 72.3 °F 60.1 °F 65% 29.64 in 10.0 mi SW 10.4 mph - N/A   Clear
5:15 PM 72.5 °F 59.9 °F 64% 29.64 in 10.0 mi SW 12.7 mph - N/A   Clear
5:35 PM 72.1 °F 59.9 °F 65% 29.64 in 10.0 mi WSW 8.1 mph - N/A   Clear
5:55 PM 72.1 °F 59.4 °F 64% 29.64 in 10.0 mi WSW 8.1 mph - N/A   Clear
6:15 PM 71.2 °F 59.2 °F 66% 29.64 in 10.0 mi West 5.8 mph - N/A   Clear
6:35 PM 68.2 °F 58.1 °F 70% 29.65 in 10.0 mi West 5.8 mph - N/A   Clear
7:35 PM 62.2 °F 55.6 °F 79% 29.67 in 10.0 mi NW 6.9 mph - N/A   Clear
7:55 PM 62.8 °F 55.4 °F 77% 29.66 in 10.0 mi NNW 9.2 mph - N/A   Clear
8:35 PM 61.7 °F 55.0 °F 79% 29.66 in 10.0 mi NW 10.4 mph - N/A   Clear
9:15 PM 59.7 °F 52.7 °F 78% 29.66 in 10.0 mi NW 6.9 mph - N/A   Clear
9:35 PM 59.9 °F 52.7 °F 77% 29.67 in 10.0 mi North 5.8 mph - N/A   Clear
9:55 PM 60.4 °F 51.8 °F 73% 29.67 in 10.0 mi North 9.2 mph - N/A   Clear
10:15 PM 59.0 °F 50.2 °F 73% 29.68 in 10.0 mi NNW 5.8 mph - N/A   Clear
10:55 PM 57.6 °F 48.2 °F 71% 29.66 in 10.0 mi NNW 11.5 mph - N/A   Clear
11:35 PM 57.6 °F 48.6 °F 72% 29.67 in 10.0 mi North 12.7 mph - N/A   Clear
11:55 PM 56.3 °F 48.6 °F 75% 29.67 in 10.0 mi NNW 15.0 mph - N/A   Clear